• en Belgique
  • Liste des pays
  • À 7 jours
  • Température de l'eau
  • Carte satellitaire
  • Carte météo
  • Widgets météo
  • user-avatar
    Se connecter

    Météo par heure à Louvain

    Ce jour, 22 Août, Mercredi

    Heure Température Précipitation Vent Pression Humidité
    00:00 +18°C° 0 mm 0 m/s 759 mmHg 85%
    01:00 +20°C° 0 mm 1 m/s 759 mmHg 85%
    02:00 +20°C° 0 mm 1 m/s 759 mmHg 86%
    03:00 +19°C° 0 mm 1 m/s 759 mmHg 87%
    04:00 +20°C° 0 mm 1 m/s 759 mmHg 86%
    05:00 +20°C° 0 mm 1 m/s 759 mmHg 86%
    06:00 +20°C° 0 mm 1 m/s 759 mmHg 85%
    07:00 +22°C° 0 mm 1 m/s 759 mmHg 79%
    08:00 +24°C° 0 mm 2 m/s 759 mmHg 72%
    09:00 +25°C° 0 mm 2 m/s 758 mmHg 65%
    10:00 +26°C° 0 mm 2 m/s 758 mmHg 62%
    11:00 +27°C° 0 mm 2 m/s 758 mmHg 58%
    12:00 +28°C° 0 mm 3 m/s 758 mmHg 54%
    13:00 +28°C° 0 mm 3 m/s 758 mmHg 53%
    14:00 +29°C° 0 mm 3 m/s 757 mmHg 51%
    15:00 +29°C° 0 mm 3 m/s 757 mmHg 50%
    16:00 +28°C° 0 mm 3 m/s 757 mmHg 55%
    17:00 +27°C° 0 mm 2 m/s 757 mmHg 60%
    18:00 +26°C° 0 mm 2 m/s 757 mmHg 65%
    19:00 +24°C° 0 mm 2 m/s 757 mmHg 71%
    20:00 +22°C° 0 mm 1 m/s 757 mmHg 77%
    21:00 +21°C° 0 mm 1 m/s 758 mmHg 83%
    22:00 +20°C° 0 mm 1 m/s 758 mmHg 85%
    23:00 +20°C° 0 mm 1 m/s 757 mmHg 87%

    Demain, 23 Août, Jeudi

    Heure Température Précipitation Vent Pression Humidité
    00:00 +19°C° 0 mm 1 m/s 757 mmHg 89%
    01:00 +19°C° 0 mm 1 m/s 757 mmHg 90%
    02:00 +19°C° 0 mm 1 m/s 757 mmHg 91%
    03:00 +18°C° 0 mm 1 m/s 756 mmHg 92%
    04:00 +18°C° 0 mm 2 m/s 756 mmHg 91%
    05:00 +18°C° 0 mm 2 m/s 756 mmHg 90%
    06:00 +18°C° 0 mm 2 m/s 756 mmHg 89%
    07:00 +20°C° 0 mm 3 m/s 756 mmHg 81%
    08:00 +22°C° 0 mm 3 m/s 756 mmHg 74%
    09:00 +25°C° 0 mm 3 m/s 756 mmHg 67%
    10:00 +26°C° 0 mm 4 m/s 755 mmHg 63%
    11:00 +26°C° 0 mm 4 m/s 755 mmHg 60%
    12:00 +27°C° 0 mm 4 m/s 755 mmHg 56%
    13:00 +27°C° 0,1 mm 5 m/s 754 mmHg 56%
    14:00 +27°C° 0,1 mm 5 m/s 754 mmHg 57%
    15:00 +27°C° 0,1 mm 5 m/s 754 mmHg 57%
    16:00 +26°C° 0,2 mm 5 m/s 754 mmHg 64%
    17:00 +23°C° 0,2 mm 4 m/s 754 mmHg 70%
    18:00 +22°C° 0,2 mm 4 m/s 754 mmHg 77%
    19:00 +21°C° 0,1 mm 3 m/s 754 mmHg 80%
    20:00 +20°C° 0,1 mm 3 m/s 754 mmHg 84%
    21:00 +19°C° 0,1 mm 3 m/s 755 mmHg 88%
    22:00 +18°C° 0 mm 2 m/s 755 mmHg 89%
    23:00 +17°C° 0 mm 2 m/s 754 mmHg 91%

    Après-demain, 24 Août, Vendredi

    Heure Température Précipitation Vent Pression Humidité
    00:00 +16°C° 0 mm 2 m/s 754 mmHg 93%
    01:00 +16°C° 0 mm 2 m/s 754 mmHg 92%
    02:00 +16°C° 0 mm 3 m/s 754 mmHg 92%
    03:00 +16°C° 0 mm 3 m/s 754 mmHg 91%
    04:00 +16°C° 0,1 mm 3 m/s 754 mmHg 90%
    05:00 +16°C° 0,1 mm 3 m/s 754 mmHg 88%
    06:00 +15°C° 0,1 mm 4 m/s 754 mmHg 87%
    07:00 +17°C° 0,3 mm 4 m/s 755 mmHg 81%
    08:00 +16°C° 0,3 mm 5 m/s 755 mmHg 75%
    09:00 +17°C° 0,3 mm 5 m/s 755 mmHg 70%
    10:00 +17°C° 0,1 mm 6 m/s 755 mmHg 62%
    11:00 +19°C° 0,1 mm 6 m/s 755 mmHg 55%
    12:00 +20°C° 0,1 mm 6 m/s 756 mmHg 48%
    13:00 +20°C° 0 mm 6 m/s 756 mmHg 47%
    14:00 +20°C° 0 mm 6 m/s 756 mmHg 46%
    15:00 +20°C° 0 mm 6 m/s 755 mmHg 46%
    16:00 +19°C° 0 mm 5 m/s 756 mmHg 50%
    17:00 +18°C° 0 mm 4 m/s 756 mmHg 54%
    18:00 +17°C° 0 mm 3 m/s 756 mmHg 58%
    19:00 +16°C° 0 mm 3 m/s 756 mmHg 61%
    20:00 +14°C° 0 mm 3 m/s 756 mmHg 65%
    21:00 +13°C° 0 mm 3 m/s 756 mmHg 69%
    22:00 +12°C° 0 mm 3 m/s 756 mmHg 72%
    23:00 +12°C° 0 mm 4 m/s 756 mmHg 76%

    25 Août, Samedi

    Heure Température Précipitation Vent Pression Humidité
    00:00 +11°C° 0 mm 4 m/s 755 mmHg 79%
    01:00 +11°C° 0,2 mm 4 m/s 755 mmHg 82%
    02:00 +11°C° 0,2 mm 4 m/s 755 mmHg 84%
    03:00 +11°C° 0,2 mm 4 m/s 754 mmHg 87%
    04:00 +11°C° 0,5 mm 4 m/s 754 mmHg 88%
    05:00 +11°C° 0,5 mm 4 m/s 754 mmHg 89%
    06:00 +11°C° 0,5 mm 4 m/s 754 mmHg 90%
    07:00 +12°C° 0,8 mm 4 m/s 754 mmHg 88%
    08:00 +12°C° 0,8 mm 5 m/s 754 mmHg 85%
    09:00 +12°C° 0,8 mm 5 m/s 754 mmHg 83%
    10:00 +13°C° 0,8 mm 5 m/s 754 mmHg 79%
    11:00 +14°C° 0,8 mm 6 m/s 754 mmHg 75%
    12:00 +15°C° 0,8 mm 6 m/s 754 mmHg 71%
    13:00 +15°C° 0,4 mm 6 m/s 754 mmHg 67%
    14:00 +16°C° 0,4 mm 6 m/s 754 mmHg 63%
    15:00 +16°C° 0,4 mm 6 m/s 754 mmHg 59%
    16:00 +15°C° 0 mm 5 m/s 755 mmHg 62%
    17:00 +15°C° 0 mm 4 m/s 755 mmHg 64%
    18:00 +14°C° 0 mm 3 m/s 755 mmHg 67%
    19:00 +13°C° 0 mm 3 m/s 756 mmHg 71%
    20:00 +12°C° 0 mm 3 m/s 756 mmHg 75%
    21:00 +12°C° 0 mm 2 m/s 757 mmHg 79%
    22:00 +12°C° 0 mm 2 m/s 757 mmHg 80%
    23:00 +10°C° 0 mm 2 m/s 757 mmHg 81%

    26 Août, Dimanche

    Heure Température Précipitation Vent Pression Humidité
    00:00 +10°C° 0 mm 2 m/s 758 mmHg 83%
    01:00 +10°C° 0 mm 2 m/s 758 mmHg 84%
    02:00 +10°C° 0 mm 2 m/s 758 mmHg 84%
    03:00 +9°C° 0 mm 2 m/s 758 mmHg 85%
    04:00 +10°C° 0 mm 2 m/s 758 mmHg 84%
    05:00 +10°C° 0 mm 2 m/s 758 mmHg 83%
    06:00 +10°C° 0 mm 2 m/s 758 mmHg 82%
    07:00 +12°C° 0 mm 3 m/s 758 mmHg 74%
    08:00 +16°C° 0 mm 3 m/s 758 mmHg 66%
    09:00 +18°C° 0 mm 3 m/s 758 mmHg 58%
    10:00 +19°C° 0 mm 4 m/s 758 mmHg 54%
    11:00 +19°C° 0 mm 4 m/s 758 mmHg 50%
    12:00 +20°C° 0 mm 4 m/s 758 mmHg 47%
    13:00 +20°C° 0 mm 4 m/s 757 mmHg 45%
    14:00 +21°C° 0 mm 4 m/s 757 mmHg 44%
    15:00 +21°C° 0 mm 4 m/s 757 mmHg 42%
    16:00 +20°C° 0 mm 3 m/s 756 mmHg 45%
    17:00 +19°C° 0 mm 3 m/s 756 mmHg 47%
    18:00 +18°C° 0 mm 2 m/s 756 mmHg 49%
    19:00 +18°C° 0 mm 2 m/s 756 mmHg 49%
    20:00 +17°C° 0 mm 3 m/s 756 mmHg 48%
    21:00 +17°C° 0 mm 3 m/s 756 mmHg 47%
    22:00 +17°C° 0,1 mm 4 m/s 756 mmHg 48%
    23:00 +17°C° 0,1 mm 4 m/s 755 mmHg 49%

    27 Août, Lundi

    Heure Température Précipitation Vent Pression Humidité
    00:00 +16°C° 0,1 mm 5 m/s 755 mmHg 50%
    01:00 +16°C° 0,6 mm 5 m/s 755 mmHg 58%
    02:00 +15°C° 0,6 mm 5 m/s 755 mmHg 65%
    03:00 +15°C° 0,6 mm 5 m/s 754 mmHg 72%
    04:00 +15°C° 0,8 mm 5 m/s 754 mmHg 77%
    05:00 +15°C° 0,8 mm 5 m/s 754 mmHg 82%
    06:00 +15°C° 0,8 mm 5 m/s 754 mmHg 87%
    07:00 +15°C° 0,6 mm 5 m/s 755 mmHg 88%
    08:00 +16°C° 0,6 mm 5 m/s 755 mmHg 90%
    09:00 +17°C° 0,6 mm 5 m/s 755 mmHg 91%
    10:00 +19°C° 0,2 mm 5 m/s 755 mmHg 87%
    11:00 +20°C° 0,2 mm 5 m/s 755 mmHg 83%
    12:00 +21°C° 0,2 mm 5 m/s 755 mmHg 78%
    13:00 +22°C° 0,2 mm 5 m/s 756 mmHg 75%
    14:00 +22°C° 0,2 mm 5 m/s 756 mmHg 72%
    15:00 +23°C° 0,2 mm 4 m/s 756 mmHg 69%
    16:00 +22°C° 0,1 mm 4 m/s 756 mmHg 71%
    17:00 +21°C° 0,1 mm 3 m/s 756 mmHg 74%
    18:00 +20°C° 0,1 mm 2 m/s 756 mmHg 76%
    19:00 +19°C° 0 mm 2 m/s 757 mmHg 80%
    20:00 +18°C° 0 mm 2 m/s 757 mmHg 83%
    21:00 +18°C° 0 mm 1 m/s 757 mmHg 87%
    22:00 +16°C° 0 mm 1 m/s 757 mmHg 88%
    23:00 +16°C° 0 mm 1 m/s 757 mmHg 89%
    Voir plus